UAE46 EDDF-OMDB

Flight info

Callsign UAE46
Flight time N/A
Altitude 23000
Route CINDY8S/18 CINDY Z403 GIBSA/N0482F350 Z12 SULUS Z650 TONSU Z35 LOMKI DCT PR582 DCT USUPA DCT SOPAV L984 LUXAR L986 TEPNA/K0896F350 L986 INROG L981 ODESE DCT OLENA R230 OGAPA A805 PIRIL/K0895F370 A805 KARAT B143 IDLER/N0481F370 M747 LAGAS M54 ADILA N82 ADANO N77 MAGRI R654 DARUN DCT MURPU L125 GOLNU N72 PEDAR DCT EGVEL/N0479F380 B417 IMKEN/N0483F370 M701 MESVI/N0481F380 DCT TULAX B417 DESLU/N0485F370 R784 IMDAT B416 PEGET R784 EGMIT B416 ORSAR R784 TATLA DCT VUTEB VUTE4C
Aircraft B77W/H-SDE1E2E3FGHIJ2J3J4J5M1RWXY/LB1D1

Departure

Time 2026-04-18 11:03
Airport Frankfurt Main Airport (EDDF)

Arrival

Time N/A
Airport Dubai International Airport (OMDB)
Time Latitude Longitude Altitude Speed Heading
2026-04-18 10:04 50.05121 8.58977 361 ft 0 kts 339°
2026-04-18 10:45 50.05118 8.58979 361 ft 2 kts 340°
2026-04-18 10:45 50.05104 8.58986 361 ft 2 kts 343°
2026-04-18 10:46 50.05090 8.58993 361 ft 2 kts 343°
2026-04-18 10:46 50.05076 8.58999 361 ft 2 kts 342°
2026-04-18 10:46 50.05065 8.59004 361 ft 0 kts 342°
2026-04-18 10:51 50.05064 8.59005 361 ft 0 kts 342°
2026-04-18 10:51 50.05053 8.59011 361 ft 2 kts 327°
2026-04-18 10:51 50.05044 8.59027 361 ft 2 kts 295°
2026-04-18 10:52 50.05040 8.59048 361 ft 2 kts 268°
2026-04-18 10:52 50.05042 8.59064 361 ft 0 kts 249°
2026-04-18 10:52 50.05043 8.59069 361 ft 0 kts 249°
2026-04-18 10:52 50.05043 8.59068 361 ft 0 kts 249°
2026-04-18 10:56 50.05042 8.59063 361 ft 2 kts 249°
2026-04-18 10:56 50.05030 8.59016 361 ft 5 kts 249°
2026-04-18 10:57 50.05016 8.58961 361 ft 5 kts 249°
2026-04-18 10:57 50.05000 8.58898 361 ft 8 kts 249°
2026-04-18 10:57 50.04975 8.58802 361 ft 9 kts 249°
2026-04-18 10:57 50.04951 8.58712 361 ft 8 kts 237°
2026-04-18 10:58 50.04904 8.58686 361 ft 7 kts 172°
2026-04-18 10:58 50.04857 8.58705 361 ft 6 kts 160°
2026-04-18 10:58 50.04811 8.58732 361 ft 7 kts 160°
2026-04-18 10:58 50.04757 8.58762 361 ft 8 kts 164°
2026-04-18 10:59 50.04704 8.58769 361 ft 7 kts 180°
2026-04-18 10:59 50.04682 8.58768 361 ft 0 kts 184°
2026-04-18 10:59 50.04675 8.58767 361 ft 3 kts 186°
2026-04-18 10:59 50.04662 8.58765 361 ft 0 kts 187°
2026-04-18 11:00 50.04659 8.58764 361 ft 0 kts 186°
2026-04-18 11:00 50.04655 8.58764 361 ft 0 kts 188°
2026-04-18 11:01 50.04646 8.58761 361 ft 4 kts 188°
2026-04-18 11:02 50.04533 8.58649 361 ft 14 kts 219°
2026-04-18 11:02 50.04461 8.58467 361 ft 35 kts 251°
2026-04-18 11:02 50.04294 8.57771 361 ft 100 kts 250°
2026-04-18 11:02 50.03980 8.56456 361 ft 156 kts 250°
2026-04-18 11:03 50.03550 8.54663 542 ft 187 kts 250°
2026-04-18 11:03 50.03077 8.52734 1047 ft 196 kts 250°
2026-04-18 11:03 50.02576 8.50802 1714 ft 198 kts 243°
2026-04-18 11:03 50.01599 8.49203 1914 ft 216 kts 208°
2026-04-18 11:04 50.00093 8.48668 2081 ft 237 kts 177°
2026-04-18 11:04 49.98440 8.49419 2296 ft 258 kts 147°
2026-04-18 11:04 49.97169 8.51420 2836 ft 265 kts 125°
2026-04-18 11:04 49.96215 8.53819 3573 ft 266 kts 120°
2026-04-18 11:05 49.95310 8.56348 4233 ft 269 kts 120°
2026-04-18 11:05 49.94432 8.58909 4790 ft 273 kts 112°
2026-04-18 11:05 49.94030 8.61800 5181 ft 280 kts 96°
2026-04-18 11:05 49.93897 8.64781 5964 ft 277 kts 94°
2026-04-18 11:06 49.93665 8.67769 6570 ft 279 kts 109°
2026-04-18 11:06 49.92712 8.70374 7085 ft 281 kts 136°
2026-04-18 11:06 49.91227 8.72338 7680 ft 282 kts 145°
2026-04-18 11:06 49.89610 8.74139 8310 ft 284 kts 146°
2026-04-18 11:07 49.88206 8.76337 8815 ft 291 kts 125°
2026-04-18 11:07 49.87147 8.79021 9421 ft 293 kts 121°
2026-04-18 11:07 49.86138 8.81830 9994 ft 296 kts 120°
2026-04-18 11:07 49.85125 8.84650 10404 ft 306 kts 120°
2026-04-18 11:08 49.84060 8.87596 10616 ft 324 kts 120°
2026-04-18 11:08 49.82903 8.90786 10828 ft 342 kts 120°
2026-04-18 11:08 49.81714 8.94059 11082 ft 358 kts 120°
2026-04-18 11:08 49.80456 8.97517 11380 ft 373 kts 120°
2026-04-18 11:09 49.79151 9.01097 11745 ft 387 kts 120°
2026-04-18 11:09 49.77799 9.04804 12326 ft 395 kts 120°
2026-04-18 11:09 49.76514 9.08572 13019 ft 400 kts 113°
2026-04-18 11:09 49.75623 9.12698 13734 ft 405 kts 104°
2026-04-18 11:10 49.74938 9.16955 14537 ft 409 kts 103°
2026-04-18 11:10 49.74253 9.21280 15402 ft 414 kts 103°
2026-04-18 11:10 49.73567 9.25573 16191 ft 419 kts 103°
2026-04-18 11:10 49.72857 9.29986 17029 ft 424 kts 103°
2026-04-18 11:11 49.72134 9.34444 17836 ft 429 kts 103°
2026-04-18 11:11 49.71403 9.38914 18599 ft 434 kts 103°
2026-04-18 11:11 49.70656 9.43466 19381 ft 439 kts 103°
2026-04-18 11:11 49.69896 9.48082 20154 ft 444 kts 103°
2026-04-18 11:12 49.69126 9.52749 20916 ft 448 kts 103°
2026-04-18 11:12 49.68364 9.57504 21656 ft 452 kts 101°
2026-04-18 11:12 49.67981 9.62350 22349 ft 456 kts 90°
2026-04-18 11:12 49.68129 9.67274 23008 ft 457 kts 82°
2026-04-18 11:13 49.68765 9.72102 23147 ft 456 kts 73°
2026-04-18 11:13 49.69585 9.76857 23153 ft 453 kts 76°
2026-04-18 11:13 49.70198 9.81614 23151 ft 452 kts 79°
2026-04-18 11:13 49.70694 9.86485 23151 ft 453 kts 79°
2026-04-18 11:14 49.71469 9.91140 23154 ft 450 kts 69°
2026-04-18 11:14 49.72751 9.95579 23154 ft 448 kts 59°
2026-04-18 11:14 49.74404 9.99654 23157 ft 447 kts 54°
2026-04-18 11:14 49.76179 10.03704 23169 ft 458 kts 53°
2026-04-18 11:15 49.78032 10.07856 23237 ft 476 kts 53°
2026-04-18 11:15 49.79975 10.12161 23639 ft 487 kts 53°
2026-04-18 11:15 49.81925 10.16458 24534 ft 486 kts 53°
2026-04-18 11:15 49.83865 10.20719 25639 ft 480 kts 52°
2026-04-18 11:16 49.85762 10.24881 26614 ft 476 kts 52°
2026-04-18 11:16 49.87686 10.29095 27104 ft 480 kts 52°
2026-04-18 11:16 49.89608 10.33304 27153 ft 480 kts 52°
2026-04-18 11:16 49.91524 10.37502 27152 ft 476 kts 52°
2026-04-18 11:17 49.93436 10.41697 27156 ft 476 kts 52°
2026-04-18 11:17 49.95342 10.45899 27154 ft 476 kts 52°
2026-04-18 11:17 49.97234 10.50076 27155 ft 476 kts 52°
2026-04-18 11:17 49.99159 10.54332 27162 ft 483 kts 52°
2026-04-18 11:18 50.01112 10.58651 27175 ft 500 kts 53°
2026-04-18 11:18 50.02903 10.63338 27384 ft 513 kts 62°
2026-04-18 11:18 50.04229 10.68538 28074 ft 516 kts 72°
2026-04-18 11:18 50.05015 10.73980 29055 ft 512 kts 81°
2026-04-18 11:19 50.05269 10.79395 29964 ft 508 kts 90°
2026-04-18 11:19 50.05019 10.84859 30704 ft 507 kts 98°
2026-04-18 11:19 50.04274 10.90219 31118 ft 510 kts 107°
2026-04-18 11:19 50.03125 10.95524 31153 ft 510 kts 110°
2026-04-18 11:20 50.00727 11.06023 31157 ft 506 kts 109°
2026-04-18 11:20 49.98412 11.16412 31157 ft 507 kts 109°
2026-04-18 11:21 49.96881 11.27124 31159 ft 506 kts 94°
2026-04-18 11:21 49.96494 11.38077 31160 ft 506 kts 92°
2026-04-18 11:22 49.96142 11.49045 31159 ft 507 kts 92°
2026-04-18 11:22 49.95782 11.59943 31165 ft 506 kts 92°
2026-04-18 11:23 49.95408 11.70903 31165 ft 505 kts 92°
2026-04-18 11:23 49.95023 11.81838 31167 ft 506 kts 92°
2026-04-18 11:24 49.94628 11.92801 31168 ft 505 kts 92°
2026-04-18 11:24 49.94365 12.03807 31164 ft 506 kts 91°
2026-04-18 11:25 49.94150 12.14751 31164 ft 505 kts 91°
2026-04-18 11:25 49.93917 12.25692 31160 ft 505 kts 91°
2026-04-18 11:26 49.93671 12.36534 31166 ft 506 kts 91°
2026-04-18 11:26 49.93367 12.47508 31165 ft 505 kts 91°
2026-04-18 11:27 49.93050 12.58417 31169 ft 505 kts 91°
2026-04-18 11:27 49.92724 12.69337 31162 ft 506 kts 92°
2026-04-18 11:28 49.92385 12.80324 31165 ft 506 kts 92°
2026-04-18 11:28 49.92034 12.91381 31168 ft 506 kts 92°
2026-04-18 11:29 49.91677 13.02315 31165 ft 506 kts 92°
2026-04-18 11:29 49.91312 13.13150 31165 ft 503 kts 91°
2026-04-18 11:30 49.90817 13.24072 31158 ft 505 kts 98°
2026-04-18 11:30 49.89264 13.34824 31163 ft 506 kts 102°
2026-04-18 11:31 49.87587 13.45524 31163 ft 506 kts 102°
2026-04-18 11:31 49.85918 13.56095 31161 ft 507 kts 102°
2026-04-18 11:32 49.84223 13.66759 31160 ft 507 kts 103°
2026-04-18 11:32 49.82518 13.77421 31157 ft 507 kts 103°
2026-04-18 11:33 49.80804 13.88071 31160 ft 507 kts 103°
2026-04-18 11:33 49.79076 13.98734 31163 ft 505 kts 103°
2026-04-18 11:34 49.77349 14.09328 31166 ft 506 kts 103°
2026-04-18 11:34 49.76023 14.17415 31165 ft 506 kts 103°
2026-04-18 11:35 49.74141 14.27982 31164 ft 507 kts 109°
2026-04-18 11:35 49.71539 14.38290 31166 ft 509 kts 110°
2026-04-18 11:36 49.68897 14.48546 31170 ft 509 kts 110°
2026-04-18 11:36 49.66262 14.58726 31171 ft 509 kts 110°
2026-04-18 11:37 49.63610 14.68933 31167 ft 510 kts 111°
2026-04-18 11:37 49.60933 14.79187 31168 ft 509 kts 111°
2026-04-18 11:38 49.58253 14.89407 31170 ft 509 kts 111°
2026-04-18 11:38 49.55576 14.99574 31172 ft 509 kts 110°
2026-04-18 11:39 49.53457 15.10039 31174 ft 506 kts 97°
2026-04-18 11:39 49.53383 15.20887 31181 ft 499 kts 78°
2026-04-18 11:40 49.54866 15.31366 31185 ft 497 kts 73°
2026-04-18 11:40 49.56456 15.41764 31181 ft 495 kts 73°
2026-04-18 11:41 49.58033 15.52165 31180 ft 495 kts 73°
2026-04-18 11:41 49.59602 15.62610 31186 ft 495 kts 73°
2026-04-18 11:42 49.61158 15.73043 31172 ft 494 kts 74°
2026-04-18 11:42 49.62709 15.83520 31174 ft 495 kts 73°
2026-04-18 11:43 49.64245 15.93965 31178 ft 495 kts 73°
2026-04-18 11:43 49.65772 16.04425 31175 ft 494 kts 73°
2026-04-18 11:44 49.67280 16.14823 31176 ft 494 kts 73°
2026-04-18 11:44 49.68784 16.25270 31176 ft 493 kts 73°
2026-04-18 11:45 49.70282 16.35745 31179 ft 492 kts 73°
2026-04-18 11:45 49.71754 16.46105 31177 ft 492 kts 73°
2026-04-18 11:46 49.73221 16.56506 31180 ft 492 kts 73°
2026-04-18 11:46 49.74687 16.66969 31177 ft 491 kts 74°
2026-04-18 11:47 49.76136 16.77387 31176 ft 491 kts 74°
2026-04-18 11:47 49.77564 16.87724 31175 ft 489 kts 74°
2026-04-18 11:48 49.78983 16.98074 31174 ft 490 kts 74°
2026-04-18 11:48 49.80401 17.08491 31172 ft 488 kts 73°
2026-04-18 11:49 49.81258 17.14814 31174 ft 489 kts 73°
2026-04-18 11:49 49.82657 17.25211 31174 ft 487 kts 73°
2026-04-18 11:50 49.84031 17.35494 31170 ft 488 kts 73°
2026-04-18 11:50 49.85407 17.45864 31173 ft 486 kts 73°
2026-04-18 11:51 49.86771 17.56217 31172 ft 487 kts 73°
2026-04-18 11:51 49.88128 17.66598 31171 ft 486 kts 74°
2026-04-18 11:52 49.89481 17.77024 31176 ft 486 kts 74°
2026-04-18 11:52 49.90819 17.87412 31178 ft 485 kts 74°
2026-04-18 11:53 49.92136 17.97715 31191 ft 484 kts 73°
2026-04-18 11:53 49.93066 18.08137 31192 ft 488 kts 83°
2026-04-18 11:54 49.93246 18.18776 31199 ft 488 kts 83°
2026-04-18 11:54 49.93387 18.29398 31198 ft 489 kts 84°
2026-04-18 11:55 49.93501 18.39966 31194 ft 488 kts 83°
2026-04-18 11:55 49.93608 18.50651 31186 ft 487 kts 83°
2026-04-18 11:56 49.93660 18.55642 31190 ft 488 kts 83°
2026-04-18 11:57 49.93729 18.62576 31189 ft 488 kts 83°
2026-04-18 11:57 49.93825 18.73158 31181 ft 488 kts 84°
2026-04-18 11:58 49.93909 18.83695 31179 ft 487 kts 84°
2026-04-18 11:58 49.93975 18.92943 31180 ft 487 kts 84°
2026-04-18 11:59 49.94010 19.00510 31175 ft 486 kts 84°